Weather History for KROA - October, 2013

Change the Weather History Date:

Thursday, October 17, 2013

  Actual Average Record
Temperature  
Mean Temperature 62 °F 57 °F  
Max Temperature 67 °F 69 °F 86 °F (1938)
Min Temperature 56 °F 46 °F 30 °F (1937)
Degree Days  
Heating Degree Days 3 8  
Month to date heating degree days 42 107  
Since 1 July heating degree days 76 156  
Cooling Degree Days 0 0  
Month to date cooling degree days 38 18  
Year to date cooling degree days 1225 1204  
Growing Degree Days 12 (Base 50)    
Moisture  
Dew Point 58 °F    
Average Humidity 80    
Maximum Humidity 93    
Minimum Humidity 67    
Precipitation  
Precipitation 0.05 in 0.08 in 5.55 in (1932)
Month to date precipitation 2.46 1.54  
Year to date precipitation 45.90 33.56  
Snow  
Snow 0.00 in - - ()
Month to date snowfall 0.0  
Since 1 July snowfall 0.0  
Since 1 September snowfall 0.0  
Snow Depth 0.00 in    
Sea Level Pressure  
Sea Level Pressure 29.90 in    
Wind  
Wind Speed 4 mph (SW)    
Max Wind Speed 18 mph    
Max Gust Speed 23 mph    
Visibility 10 miles    
Events Rain    
T = Trace of Precipitation, MM = Missing Value Source: NWS Daily Summary

Daily Weather History Graph

Daily Weather History Graph

Search for Another Location

Airport or City:

Trip Planner

Search our weather history database for the weather conditions in past years. The results will help you decide how hot, cold, wet, or windy it might be!

Date:

Astronomy

Oct. 17, 2013 Rise Set
Actual Time 7:29 AM EDT 6:39 PM EDT
Civil Twilight 7:03 AM EDT 7:06 PM EDT
Nautical Twilight 6:33 AM EDT 7:36 PM EDT
Astronomical Twilight 6:03 AM EDT 8:06 PM EDT
Moon 5:52 PM EDT (10/17) 6:01 AM EDT (10/17)
Length of Visible Light 12h 02m
Length of Day
11h 09m
Waxing Gibbous, 98% of the Moon is Illuminated
Oct 17
Waxing Gibbous
Oct 18
Full
Oct 26
Last Quarter
Nov 3
New
Nov 10
First Quarter

Hourly Weather History & Observations

Time (EDT) Temp. Dew Point Humidity Pressure Visibility Wind Dir Wind Speed Gust Speed Precip Events Conditions
12:54 AM 60.1 °F 57.0 °F 90% 29.97 in 10.0 mi Calm Calm - N/A   Clear
1:54 AM 60.1 °F 57.0 °F 90% 29.96 in 10.0 mi Calm Calm - 0.00 in   Scattered Clouds
2:54 AM 59.0 °F 57.0 °F 93% 29.94 in 10.0 mi Calm Calm - 0.00 in   Clear
3:54 AM 60.1 °F 57.0 °F 90% 29.92 in 10.0 mi Calm Calm - N/A   Clear
4:54 AM 59.0 °F 57.9 °F 96% 29.92 in 10.0 mi Calm Calm - 0.00 in Rain Light Rain
5:54 AM 61.0 °F 57.0 °F 87% 29.92 in 10.0 mi West 4.6 mph - 0.00 in   Scattered Clouds
6:54 AM 62.1 °F 57.0 °F 84% 29.93 in 10.0 mi Calm Calm - N/A   Overcast
7:54 AM 61.0 °F 57.9 °F 90% 29.93 in 10.0 mi Calm Calm - N/A   Overcast
8:54 AM 61.0 °F 57.9 °F 90% 29.94 in 10.0 mi Calm Calm - N/A   Overcast
9:54 AM 63.0 °F 57.9 °F 84% 29.93 in 10.0 mi Calm Calm - 0.01 in Rain Light Rain
10:54 AM 64.0 °F 57.9 °F 80% 29.93 in 10.0 mi Calm Calm - 0.00 in Rain Light Rain
11:54 AM 64.9 °F 60.1 °F 84% 29.92 in 10.0 mi Calm Calm - 0.00 in   Overcast
12:54 PM 64.0 °F 60.1 °F 87% 29.90 in 6.0 mi Calm Calm - 0.03 in Rain Light Rain
1:31 PM 64.4 °F 60.8 °F 88% 29.90 in 10.0 mi ESE 4.6 mph - 0.00 in   Overcast
1:42 PM 64.4 °F 60.8 °F 88% 29.89 in 10.0 mi Calm Calm - 0.00 in   Overcast
1:51 PM 64.4 °F 60.8 °F 88% 29.88 in 10.0 mi Calm Calm - 0.00 in   Overcast
1:54 PM 64.9 °F 61.0 °F 87% 29.86 in 10.0 mi Calm Calm - 0.00 in   Overcast
2:54 PM 66.0 °F 62.1 °F 87% 29.84 in 10.0 mi SE 5.8 mph - N/A   Overcast
3:54 PM 66.9 °F 62.1 °F 84% 29.83 in 10.0 mi SSE 5.8 mph - N/A   Overcast
4:54 PM 66.0 °F 62.1 °F 87% 29.82 in 10.0 mi South 5.8 mph - 0.00 in   Overcast
5:54 PM 66.0 °F 62.1 °F 87% 29.81 in 10.0 mi South 4.6 mph - N/A   Overcast
6:54 PM 64.9 °F 61.0 °F 87% 29.81 in 10.0 mi South 4.6 mph - N/A   Mostly Cloudy
7:54 PM 66.0 °F 59.0 °F 78% 29.85 in 10.0 mi WNW 6.9 mph - 0.01 in   Overcast
8:54 PM 64.9 °F 55.0 °F 70% 29.87 in 10.0 mi WSW 11.5 mph - N/A   Partly Cloudy
9:54 PM 62.1 °F 53.1 °F 72% 29.90 in 10.0 mi West 6.9 mph 16.1 mph N/A   Scattered Clouds
10:46 PM 60.8 °F 51.8 °F 72% 29.94 in 10.0 mi WNW 16.1 mph 23.0 mph N/A   Overcast
10:54 PM 61.0 °F 51.1 °F 70% 29.93 in 10.0 mi WNW 18.4 mph 23.0 mph N/A   Overcast
11:54 PM 59.0 °F 48.0 °F 67% 29.95 in 10.0 mi NW 5.8 mph 17.3 mph N/A   Overcast